GW0435 Weather Reports


Display with metric or nautical units.
time (UTC)temp
F
wind
direction
speed
MPH
gust
MPH
rain 1hr
in
rain 24hr
in
rain mn
in
humidity
%
barometer
mb
20260510194552 69 244 2.0 9.0 0.00 0.00 0.00 20 1005.1
20260510193056 70 244 6.0 19.0 0.00 0.00 0.00 20 1004.9
20260510191550 73 244 4.0 12.0 0.00 0.00 0.00 18 1004.8
20260510190048 72 247 6.0 17.0 0.00 0.00 0.00 20 1005.0
20260510184551 72 249 12.0 17.0 0.00 0.00 0.00 22 1005.0
20260510183042 70 250 4.0 12.0 0.00 0.00 0.00 21 1005.1
20260510181541 70 250 7.0 14.0 0.00 0.00 0.00 23 1005.0
20260510180043 69 250 3.0 15.0 0.00 0.00 0.00 24 1005.1
20260510174535 69 250 10.0 15.0 0.00 0.00 0.00 25 1005.2
20260510173036 68 250 5.0 11.0 0.00 0.00 0.00 26 1005.2
20260510171534 67 250 9.0 15.0 0.00 0.00 0.00 26 1005.3
20260510170023 67 250 5.0 14.0 0.00 0.00 0.00 27 1005.2
20260510164518 66 250 9.0 18.0 0.00 0.00 0.00 28 1005.1
20260510163015 67 275 6.0 14.0 0.00 0.00 0.00 28 1005.0
20260510161510 67 275 5.0 12.0 0.00 0.00 0.00 26 1005.0
20260510160008 66 275 2.0 15.0 0.00 0.00 0.00 27 1005.0
20260510154502 65 275 8.0 15.0 0.00 0.00 0.00 28 1005.0
20260510153058 65 275 7.0 18.0 0.00 0.00 0.00 28 1004.9
20260510151557 65 300 5.0 13.0 0.00 0.00 0.00 27 1004.7
20260510150048 64 307 8.0 13.0 0.00 0.00 0.00 28 1004.6
20260510144548 64 314 5.0 13.0 0.00 0.00 0.00 28 1004.6
20260510143043 63 317 3.0 9.0 0.00 0.00 0.00 29 1004.7
20260510141541 63 317 1.0 4.0 0.00 0.00 0.00 29 1004.5
20260510140032 61 317 2.0 5.0 0.00 0.00 0.00 28 1004.2
20260510134528 58 317 1.0 6.0 0.00 0.00 0.00 32 1004.1
20260510133025 56 317 2.0 5.0 0.00 0.00 0.00 36 1004.2
20260510131522 55 317 3.0 6.0 0.00 0.00 0.00 36 1004.0
20260510130036 55 317 3.0 6.0 0.00 0.00 0.00 35 1003.8
20260510124519 55 317 2.0 6.0 0.00 0.00 0.00 34 1003.4
20260510123013 55 317 2.0 4.0 0.00 0.00 0.00 34 1003.4
20260510121509 56 317 1.0 4.0 0.00 0.00 0.00 32 1003.4
20260510120023 57 317 4.0 6.0 0.00 0.00 0.00 31 1003.2
20260510114513 58 317 4.0 6.0 0.00 0.00 0.00 30 1003.2
20260510113004 58 317 4.0 9.0 0.00 0.00 0.00 29 1003.0
20260510111503 58 317 3.0 4.0 0.00 0.00 0.00 28 1002.8
20260510110003 58 317 2.0 8.0 0.00 0.00 0.00 27 1002.6
20260510104501 58 317 5.0 8.0 0.00 0.00 0.00 28 1002.4
20260510103059 57 317 4.0 9.0 0.00 0.00 0.00 30 1002.5
20260510101557 57 317 2.0 5.0 0.00 0.00 0.00 29 1002.3
20260510100100 57 317 2.0 3.0 0.00 0.00 0.00 28 1002.2
20260510094550 58 317 1.0 2.0 0.00 0.00 0.00 26 1002.0
20260510093053 59 317 0.0 1.0 0.00 0.00 0.00 26 1001.8
20260510091547 59 317 0.0 4.0 0.00 0.00 0.00 26 1001.6
20260510090047 59 317 2.0 6.0 0.00 0.00 0.00 26 1001.1
20260510084544 58 317 2.0 6.0 0.00 0.00 0.00 27 1001.0
20260510083056 58 317 2.0 6.0 0.00 0.00 0.00 27 1000.9
20260510081543 58 317 2.0 6.0 0.00 0.00 0.00 27 1000.8
20260510080040 59 317 3.0 6.0 0.00 0.00 0.00 26 1000.9
20260510074543 60 317 4.0 9.0 0.00 0.00 0.00 26 1000.9
20260510073040 59 317 5.0 8.0 0.00 0.00 0.00 26 1000.9
20260510071541 58 317 3.0 6.0 0.00 0.00 0.00 27 1000.9
20260510070037 59 317 3.0 8.0 0.00 0.00 0.00 26 1000.9
20260510064535 60 317 4.0 9.0 0.00 0.00 0.00 25 1000.8
20260510063033 61 317 5.0 9.0 0.00 0.00 0.00 24 1000.9
20260510061529 61 317 5.0 9.0 0.00 0.00 0.00 24 1000.8
20260510060031 61 317 5.0 10.0 0.00 0.00 0.00 23 1000.8
20260510054525 62 317 4.0 11.0 0.00 0.00 0.00 22 1000.6
20260510053026 63 317 6.0 12.0 0.00 0.00 0.00 21 1000.6
20260510051525 64 317 6.0 13.0 0.00 0.00 0.00 20 1000.6
20260510050023 64 317 8.0 12.0 0.00 0.00 0.00 19 1000.6
20260510044525 65 317 5.0 13.0 0.00 0.00 0.00 18 1000.6
20260510043023 65 317 6.0 11.0 0.00 0.00 0.00 18 1000.6
20260510041523 64 317 5.0 8.0 0.00 0.00 0.00 17 1000.6
20260510040022 65 317 3.0 7.0 0.00 0.00 0.00 16 1000.4
20260510034527 65 317 3.0 7.0 0.00 0.00 0.00 15 1000.3
20260510033024 66 317 5.0 10.0 0.00 0.00 0.00 14 1000.1
20260510031523 67 317 6.0 9.0 0.00 0.00 0.00 13 999.9
20260510030025 67 317 2.0 4.0 0.00 0.00 0.00 13 999.7
20260510024520 68 317 2.0 4.0 0.00 0.00 0.00 12 999.4
20260510023019 69 317 3.0 5.0 0.00 0.00 0.00 12 999.1
20260510021525 70 317 2.0 8.0 0.00 0.00 0.00 11 998.9
20260510020020 71 317 4.0 8.0 0.00 0.00 0.00 11 998.7
20260510014519 72 316 6.0 14.0 0.00 0.00 0.00 11 998.6
20260510013017 74 316 7.0 15.0 0.00 0.00 0.00 9 998.4
20260510011517 75 319 7.0 17.0 0.00 0.00 0.00 9 998.3
20260510010016 75 328 8.0 22.0 0.00 0.00 0.00 9 998.1
20260510004516 76 307 7.0 13.0 0.00 0.00 0.00 9 998.1
20260510003016 76 307 9.0 15.0 0.00 0.00 0.00 9 998.0
20260510001515 76 304 8.0 14.0 0.00 0.00 0.00 9 998.1
20260510000015 77 303 8.0 14.0 0.00 0.00 0.00 9 998.0
20260509234529 76 302 8.0 17.0 0.00 0.00 0.00 9 998.0
20260509233013 77 303 8.0 18.0 0.00 0.00 0.00 8 997.9
20260509231517 78 304 6.0 19.0 0.00 0.00 0.00 8 997.9
20260509230012 78 303 8.0 14.0 0.00 0.00 0.00 8 997.9
20260509224526 78 302 6.0 16.0 0.00 0.00 0.00 8 997.9
20260509223011 77 302 8.0 15.0 0.00 0.00 0.00 8 998.0
20260509221509 76 306 5.0 10.0 0.00 0.00 0.00 9 998.1
20260509220007 78 306 3.0 14.0 0.00 0.00 0.00 8 998.3
20260509214506 79 306 8.0 15.0 0.00 0.00 0.00 9 998.4
20260509213006 75 304 4.0 15.0 0.00 0.00 0.00 11 998.7
20260509211508 77 305 9.0 14.0 0.00 0.00 0.00 10 998.8
20260509210002 77 303 5.0 14.0 0.00 0.00 0.00 11 999.2
20260509204608 77 309 5.0 14.0 0.00 0.00 0.00 10 999.3
20260509203115 76 308 5.0 9.0 0.00 0.00 0.00 10 999.7
20260509201559 78 308 8.0 19.0 0.00 0.00 0.00 10 999.9
20260509200057 77 311 4.0 11.0 0.00 0.00 0.00 10 1000.0